Time,TemperatureF,DewpointF,PressureIn,WindDirection,WindDirectionDegrees,WindSpeedMPH,WindSpeedGustMPH,Humidity,HourlyPrecipIn,Conditions,Clouds,dailyrainin,SoftwareType,DateUTC
2013-10-03 00:13:00,72.6,50.0,29.65,ESE,114,0.0,4.0,45,0.00,,,0.00,weatherlink.com 1.10,2013-10-03 05:13:00,
2013-10-03 00:27:00,72.4,50.0,29.65,ESE,121,1.0,7.0,45,0.00,,,0.00,weatherlink.com 1.10,2013-10-03 05:27:00,
2013-10-03 00:42:00,70.6,49.0,29.65,ESE,121,0.0,1.0,47,0.00,,,0.00,weatherlink.com 1.10,2013-10-03 05:42:00,
2013-10-03 00:57:00,70.8,49.0,29.65,ESE,121,0.0,1.0,46,0.00,,,0.00,weatherlink.com 1.10,2013-10-03 05:57:00,
2013-10-03 01:12:00,71.2,50.0,29.65,ESE,122,0.0,3.0,47,0.00,,,0.00,weatherlink.com 1.10,2013-10-03 06:12:00,
2013-10-03 01:27:00,71.2,50.0,29.65,ESE,122,0.0,1.0,48,0.00,,,0.00,weatherlink.com 1.10,2013-10-03 06:27:00,
2013-10-03 01:42:00,69.7,50.0,29.64,ESE,122,0.0,1.0,50,0.00,,,0.00,weatherlink.com 1.10,2013-10-03 06:42:00,
2013-10-03 01:58:00,69.6,51.0,29.64,ESE,122,0.0,1.0,51,0.00,,,0.00,weatherlink.com 1.10,2013-10-03 06:58:00,
2013-10-03 02:13:00,69.6,50.0,29.64,ESE,122,0.0,1.0,50,0.00,,,0.00,weatherlink.com 1.10,2013-10-03 07:13:00,
2013-10-03 02:28:00,70.7,52.0,29.64,ESE,120,1.0,7.0,51,0.00,,,0.00,weatherlink.com 1.10,2013-10-03 07:28:00,
2013-10-03 02:43:00,70.8,51.0,29.64,ESE,119,1.0,1.0,50,0.00,,,0.00,weatherlink.com 1.10,2013-10-03 07:43:00,
2013-10-03 02:58:00,70.2,51.0,29.64,ESE,120,0.0,3.0,51,0.00,,,0.00,weatherlink.com 1.10,2013-10-03 07:58:00,
2013-10-03 03:13:00,69.1,51.0,29.64,ESE,120,0.0,0.0,53,0.00,,,0.00,weatherlink.com 1.10,2013-10-03 08:13:00,
2013-10-03 03:28:00,69.4,51.0,29.64,NNW,329,0.0,3.0,53,0.00,,,0.00,weatherlink.com 1.10,2013-10-03 08:28:00,
2013-10-03 03:43:00,69.7,51.0,29.63,NNW,329,0.0,0.0,52,0.00,,,0.00,weatherlink.com 1.10,2013-10-03 08:43:00,
2013-10-03 03:58:00,69.1,52.0,29.63,NNW,330,0.0,0.0,54,0.00,,,0.00,weatherlink.com 1.10,2013-10-03 08:58:00,
2013-10-03 04:13:00,70.1,50.0,29.63,NNE,32,0.0,2.0,49,0.00,,,0.00,weatherlink.com 1.10,2013-10-03 09:13:00,
2013-10-03 04:28:00,70.6,49.0,29.63,NNE,32,0.0,2.0,47,0.00,,,0.00,weatherlink.com 1.10,2013-10-03 09:28:00,
2013-10-03 04:43:00,70.7,49.0,29.63,NW,318,0.0,5.0,47,0.00,,,0.00,weatherlink.com 1.10,2013-10-03 09:43:00,
2013-10-03 04:58:00,71.8,48.0,29.63,ESE,116,3.0,4.0,43,0.00,,,0.00,weatherlink.com 1.10,2013-10-03 09:58:00,
2013-10-03 05:13:00,73.2,47.0,29.63,ESE,118,1.0,9.0,40,0.00,,,0.00,weatherlink.com 1.10,2013-10-03 10:13:00,
2013-10-03 05:28:00,73.3,47.0,29.63,SE,126,0.0,7.0,40,0.00,,,0.00,weatherlink.com 1.10,2013-10-03 10:28:00,
2013-10-03 05:43:00,73.2,46.0,29.62,SE,139,3.0,14.0,38,0.00,,,0.00,weatherlink.com 1.10,2013-10-03 10:43:00,
2013-10-03 05:58:00,72.8,46.0,29.63,ESE,110,4.0,8.0,39,0.00,,,0.00,weatherlink.com 1.10,2013-10-03 10:58:00,
2013-10-03 06:13:00,72.3,47.0,29.63,ESE,119,2.0,4.0,41,0.00,,,0.00,weatherlink.com 1.10,2013-10-03 11:13:00,
2013-10-03 06:28:00,71.5,46.0,29.64,WNW,286,2.0,5.0,41,0.00,,,0.00,weatherlink.com 1.10,2013-10-03 11:28:00,
2013-10-03 06:43:00,71.8,46.0,29.64,West,276,2.0,5.0,40,0.00,,,0.00,weatherlink.com 1.10,2013-10-03 11:43:00,
2013-10-03 06:58:00,71.5,46.0,29.64,West,266,0.0,2.0,41,0.00,,,0.00,weatherlink.com 1.10,2013-10-03 11:58:00,
2013-10-03 07:13:00,71.6,47.0,29.64,SE,134,0.0,2.0,41,0.00,,,0.00,weatherlink.com 1.10,2013-10-03 12:13:00,
2013-10-03 07:28:00,71.3,46.0,29.64,West,274,1.0,3.0,41,0.00,,,0.00,weatherlink.com 1.10,2013-10-03 12:28:00,
2013-10-03 07:43:00,70.1,46.0,29.64,SSW,207,0.0,2.0,42,0.00,,,0.00,weatherlink.com 1.10,2013-10-03 12:43:00,
2013-10-03 07:58:00,69.9,46.0,29.64,SE,129,1.0,7.0,43,0.00,,,0.00,weatherlink.com 1.10,2013-10-03 12:58:00,
2013-10-03 08:13:00,69.3,46.0,29.65,NNW,339,0.0,2.0,44,0.00,,,0.00,weatherlink.com 1.10,2013-10-03 13:13:00,
2013-10-03 08:28:00,68.5,46.0,29.65,NNW,339,0.0,1.0,44,0.00,,,0.00,weatherlink.com 1.10,2013-10-03 13:28:00,
2013-10-03 08:43:00,69.1,46.0,29.65,NNW,339,0.0,1.0,44,0.00,,,0.00,weatherlink.com 1.10,2013-10-03 13:43:00,
2013-10-03 08:58:00,71.8,47.0,29.66,NNW,339,0.0,1.0,41,0.00,,,0.00,weatherlink.com 1.10,2013-10-03 13:58:00,
2013-10-03 09:13:00,73.0,45.0,29.66,NNW,339,0.0,0.0,37,0.00,,,0.00,weatherlink.com 1.10,2013-10-03 14:13:00,
2013-10-03 09:28:00,75.2,45.0,29.67,ESE,116,0.0,2.0,34,0.00,,,0.00,weatherlink.com 1.10,2013-10-03 14:28:00,
2013-10-03 09:43:00,77.4,44.0,29.67,SE,125,7.0,11.0,30,0.00,,,0.00,weatherlink.com 1.10,2013-10-03 14:43:00,
2013-10-03 09:58:00,78.1,43.0,29.68,ESE,117,8.0,16.0,29,0.00,,,0.00,weatherlink.com 1.10,2013-10-03 14:58:00,
2013-10-03 10:28:00,80.0,44.0,29.67,ESE,121,7.0,16.0,28,0.00,,,0.00,weatherlink.com 1.10,2013-10-03 15:28:00,
2013-10-03 10:44:00,81.1,44.0,29.66,SE,129,10.0,14.0,27,0.00,,,0.00,weatherlink.com 1.10,2013-10-03 15:44:00,
2013-10-03 10:59:00,82.5,45.0,29.66,SE,135,7.0,10.0,27,0.00,,,0.00,weatherlink.com 1.10,2013-10-03 15:59:00,
2013-10-03 11:14:00,82.8,45.0,29.66,West,268,0.0,12.0,26,0.00,,,0.00,weatherlink.com 1.10,2013-10-03 16:14:00,
2013-10-03 11:29:00,84.0,47.0,29.66,ESE,110,4.0,10.0,27,0.00,,,0.00,weatherlink.com 1.10,2013-10-03 16:29:00,
2013-10-03 11:44:00,84.2,47.0,29.66,West,273,0.0,9.0,27,0.00,,,0.00,weatherlink.com 1.10,2013-10-03 16:44:00,
2013-10-03 11:59:00,85.6,47.0,29.66,WSW,251,4.0,14.0,26,0.00,,,0.00,weatherlink.com 1.10,2013-10-03 16:59:00,
2013-10-03 12:14:00,85.6,47.0,29.66,WNW,298,4.0,12.0,26,0.00,,,0.00,weatherlink.com 1.10,2013-10-03 17:14:00,
2013-10-03 12:29:00,86.4,46.0,29.65,West,260,8.0,14.0,24,0.00,,,0.00,weatherlink.com 1.10,2013-10-03 17:29:00,
2013-10-03 12:44:00,86.4,46.0,29.64,West,271,2.0,20.0,24,0.00,,,0.00,weatherlink.com 1.10,2013-10-03 17:44:00,
2013-10-03 12:59:00,87.3,45.0,29.63,West,261,7.0,14.0,23,0.00,,,0.00,weatherlink.com 1.10,2013-10-03 17:59:00,
2013-10-03 13:14:00,87.8,46.0,29.63,East,94,6.0,12.0,23,0.00,,,0.00,weatherlink.com 1.10,2013-10-03 18:14:00,
2013-10-03 13:29:00,87.7,46.0,29.62,SW,232,14.0,16.0,23,0.00,,,0.00,weatherlink.com 1.10,2013-10-03 18:29:00,
2013-10-03 13:44:00,87.9,45.0,29.61,SSW,197,2.0,18.0,22,0.00,,,0.00,weatherlink.com 1.10,2013-10-03 18:44:00,
2013-10-03 13:59:00,88.6,46.0,29.61,WNW,297,5.0,16.0,23,0.00,,,0.00,weatherlink.com 1.10,2013-10-03 18:59:00,
2013-10-03 14:14:00,88.3,45.0,29.60,West,279,6.0,16.0,22,0.00,,,0.00,weatherlink.com 1.10,2013-10-03 19:14:00,
2013-10-03 14:29:00,88.6,45.0,29.59,WSW,254,9.0,17.0,22,0.00,,,0.00,weatherlink.com 1.10,2013-10-03 19:29:00,
2013-10-03 14:44:00,87.4,43.0,29.59,East,96,5.0,16.0,21,0.00,,,0.00,weatherlink.com 1.10,2013-10-03 19:44:00,
2013-10-03 14:59:00,89.2,44.0,29.58,ESE,109,7.0,17.0,21,0.00,,,0.00,weatherlink.com 1.10,2013-10-03 19:59:00,
2013-10-03 15:14:00,89.8,45.0,29.58,WSW,254,11.0,16.0,21,0.00,,,0.00,weatherlink.com 1.10,2013-10-03 20:14:00,
2013-10-03 15:29:00,90.2,44.0,29.57,WSW,252,7.0,12.0,20,0.00,,,0.00,weatherlink.com 1.10,2013-10-03 20:29:00,
2013-10-03 15:44:00,90.1,45.0,29.57,SW,234,9.0,19.0,21,0.00,,,0.00,weatherlink.com 1.10,2013-10-03 20:44:00,
2013-10-03 16:00:00,89.9,45.0,29.55,WNW,295,4.0,15.0,21,0.00,,,0.00,weatherlink.com 1.10,2013-10-03 21:00:00,
2013-10-03 16:15:00,89.8,45.0,29.55,SSW,192,2.0,13.0,21,0.00,,,0.00,weatherlink.com 1.10,2013-10-03 21:15:00,
2013-10-03 16:30:00,88.8,45.0,29.55,ESE,107,3.0,12.0,22,0.00,,,0.00,weatherlink.com 1.10,2013-10-03 21:30:00,
2013-10-03 16:45:00,87.6,44.0,29.55,ESE,109,3.0,17.0,22,0.00,,,0.00,weatherlink.com 1.10,2013-10-03 21:45:00,
2013-10-03 17:00:00,88.7,45.0,29.55,SSW,192,0.0,17.0,22,0.00,,,0.00,weatherlink.com 1.10,2013-10-03 22:00:00,
2013-10-03 17:15:00,87.2,45.0,29.54,SE,129,5.0,9.0,23,0.00,,,0.00,weatherlink.com 1.10,2013-10-03 22:15:00,
2013-10-03 17:30:00,87.6,44.0,29.54,East,96,7.0,15.0,22,0.00,,,0.00,weatherlink.com 1.10,2013-10-03 22:30:00,
2013-10-03 17:45:00,88.0,46.0,29.54,ESE,113,5.0,13.0,23,0.00,,,0.00,weatherlink.com 1.10,2013-10-03 22:45:00,
2013-10-03 18:00:00,87.2,45.0,29.54,SSE,151,11.0,14.0,23,0.00,,,0.00,weatherlink.com 1.10,2013-10-03 23:00:00,
2013-10-03 18:15:00,87.2,45.0,29.54,SE,137,5.0,15.0,23,0.00,,,0.00,weatherlink.com 1.10,2013-10-03 23:15:00,
2013-10-03 18:30:00,86.4,44.0,29.54,ESE,115,7.0,14.0,23,0.00,,,0.00,weatherlink.com 1.10,2013-10-03 23:30:00,
2013-10-03 18:45:00,85.6,45.0,29.54,ESE,113,10.0,14.0,24,0.00,,,0.00,weatherlink.com 1.10,2013-10-03 23:45:00,
2013-10-03 19:00:00,84.7,45.0,29.54,ESE,123,3.0,14.0,25,0.00,,,0.00,weatherlink.com 1.10,2013-10-04 00:00:00,
2013-10-03 19:15:00,84.5,45.0,29.54,South,188,7.0,13.0,25,0.00,,,0.00,weatherlink.com 1.10,2013-10-04 00:15:00,
2013-10-03 19:30:00,83.8,45.0,29.54,ESE,123,7.0,14.0,26,0.00,,,0.00,weatherlink.com 1.10,2013-10-04 00:30:00,
2013-10-03 19:45:00,83.0,45.0,29.54,SSE,161,4.0,11.0,26,0.00,,,0.00,weatherlink.com 1.10,2013-10-04 00:45:00,
2013-10-03 20:00:00,81.4,50.0,29.55,ESE,112,9.0,13.0,33,0.00,,,0.00,weatherlink.com 1.10,2013-10-04 01:00:00,
2013-10-03 20:15:00,79.6,53.0,29.55,East,94,8.0,13.0,40,0.00,,,0.00,weatherlink.com 1.10,2013-10-04 01:15:00,
2013-10-03 20:30:00,78.7,54.0,29.55,East,94,9.0,12.0,42,0.00,,,0.00,weatherlink.com 1.10,2013-10-04 01:30:00,
2013-10-03 20:45:00,78.3,54.0,29.54,ESE,121,7.0,12.0,43,0.00,,,0.00,weatherlink.com 1.10,2013-10-04 01:45:00,
2013-10-03 21:00:00,77.5,55.0,29.55,ESE,117,5.0,12.0,46,0.00,,,0.00,weatherlink.com 1.10,2013-10-04 02:00:00,
2013-10-03 21:15:00,76.6,56.0,29.56,SE,136,5.0,13.0,49,0.00,,,0.00,weatherlink.com 1.10,2013-10-04 02:15:00,
2013-10-03 21:30:00,76.2,57.0,29.56,ESE,108,5.0,13.0,51,0.00,,,0.00,weatherlink.com 1.10,2013-10-04 02:30:00,
2013-10-03 21:45:00,75.7,57.0,29.56,ESE,113,8.0,13.0,52,0.00,,,0.00,weatherlink.com 1.10,2013-10-04 02:45:00,
2013-10-03 22:00:00,75.4,57.0,29.56,East,92,9.0,13.0,53,0.00,,,0.00,weatherlink.com 1.10,2013-10-04 03:00:00,
2013-10-03 22:15:00,74.9,58.0,29.56,ENE,78,12.0,16.0,56,0.00,,,0.00,weatherlink.com 1.10,2013-10-04 03:15:00,
2013-10-03 22:30:00,74.6,59.0,29.56,ESE,103,8.0,14.0,58,0.00,,,0.00,weatherlink.com 1.10,2013-10-04 03:30:00,
2013-10-03 22:45:00,74.2,59.0,29.56,ESE,117,9.0,16.0,60,0.00,,,0.00,weatherlink.com 1.10,2013-10-04 03:45:00,
2013-10-03 23:00:00,74.3,59.0,29.56,East,100,11.0,17.0,59,0.00,,,0.00,weatherlink.com 1.10,2013-10-04 04:00:00,
2013-10-03 23:45:00,73.4,59.0,29.56,ESE,119,11.0,15.0,60,0.00,,,0.00,weatherlink.com 1.10,2013-10-04 04:45:00,